Location: ??
(35.5052°N, 139.7262°E)
Time: 02:15:17
(UTC+00:00)

CZ-4B R/B - Pass Details

Date: 20 June 2021
Orbit: 702 x 802 km, 98.9° (Epoch: 26 July)

Event Time Altitude Azimuth Distance (km) Brightness Sun altitude
Rises 17:53:58 0° 12° (NNE) 3,315 7.8 -15.7°
Reaches altitude 10° 17:56:19 10° 13° (NNE) 2,375 6.9 -15.4°
Maximum altitude 18:01:35 87° 286° (WNW) 794 3.5 -14.6°
Enters shadow 18:05:48 16° 196° (SSW) 1,953 5.1 -14.0°
